This demonstration page uses our WeatherBlox Daily Observations layout. Learn more.

Left ArrowRight Arrow

39.92423, -83.80882

Hourly Observations for January 16, 2018

Temp ( °F °C ) Dew Point ( °F °C ) Humidity (%) Winds ( mph kmh ) Pressure ( in mb ) Visibility ( mi km ) Precip ( " mm )
12:56 am 00:56 Cloudy with Light Snow 14 -10 10 -12.2 84 84 NW 12 19 30.40 1030 9 14 N/A
1:56 am 01:56 Cloudy with Light Snow 12 -11.1 7 -13.9 80 80 WNW 13 20 30.42 1030 9 14 N/A
2:30 am 02:30 Cloudy with Light Snow 10 -12 7 -14 85 85 NW 12 19 30.45 1031 9 14 N/A
2:56 am 02:56 Cloudy with Light Snow 11 -11.7 6 -14.4 81 81 WNW 13 20 30.43 1031 9 14 N/A
3:56 am 03:56 Mostly Cloudy 10 -12.2 5 -15 80 80 W 12 19 30.45 1031 10 16 N/A
4:12 am 04:12 Mostly Cloudy 10 -12 5 -15 79 79 W 13 20 30.48 1032 10 16 N/A
4:56 am 04:56 Mostly Clear 8 -13.3 3 -16.1 80 80 W 14 22 30.46 1031 10 16 N/A
5:56 am 05:56 Mostly Cloudy 7 -13.9 2 -16.7 80 80 W 9 15 30.48 1032 10 16 N/A
6:56 am 06:56 Clear 5 -15 N/A 79 79 W 14 22 30.49 1033 10 16 N/A
7:56 am 07:56 Sunny 3 -16.1 -1 -18.3 83 83 W 9 15 30.52 1034 10 16 N/A
8:56 am 08:56 Sunny 4 -15.6 -1 -18.3 80 80 W 12 19 30.52 1034 10 16 N/A
9:56 am 09:56 Sunny 4 -15.6 -2 -18.9 76 76 W 13 20 30.53 1034 10 16 N/A
10:56 am 10:56 Sunny 5 -15 -1 -18.3 76 76 W 10 17 30.55 1034 10 16 N/A
11:56 am 11:56 Sunny 10 -12.2 N/A 63 63 WSW 12 19 30.54 1034 10 16 N/A
12:56 pm 12:56 Sunny 12 -11.1 N/A 58 58 W 13 20 30.51 1033 10 16 N/A
1:56 pm 13:56 Sunny 13 -10.6 1 -17.2 59 59 W 12 19 30.49 1033 10 16 N/A
2:24 pm 14:24 Mostly Cloudy 12 -11 1 -17 62 62 W 13 20 30.50 1033 10 16 N/A
2:56 pm 14:56 Cloudy 10 -12.2 1 -17.2 67 67 WSW 10 17 30.50 1033 10 16 N/A
3:56 pm 15:56 Cloudy with Light Snow 10 -12.2 2 -16.7 69 69 W 10 17 30.52 1033 9 14 N/A
4:56 pm 16:56 Cloudy with Light Snow 8 -13.3 1 -17.2 73 73 W 13 20 30.53 1034 9 14 N/A
5:56 pm 17:56 Cloudy with Light Snow 7 -13.9 1 -17.2 76 76 W 10 17 30.55 1034 10 16 N/A
6:56 pm 18:56 Cloudy 6 -14.4 1 -17.2 79 79 W 13 20 30.56 1035 9 14 N/A
7:51 pm 19:51 Cloudy 7 -14 N/A 72 72 W 13 20 30.62 1037 10 16 N/A
7:56 pm 19:56 Cloudy 6 -14.4 N/A 76 76 W 12 19 30.58 1036 10 16 N/A
8:35 pm 20:35 Cloudy 7 -14 N/A 72 72 WNW 12 19 30.62 1037 10 16 N/A
8:56 pm 20:56 Cloudy 6 -14.4 N/A 76 76 WNW 8 13 30.59 1036 9 14 N/A
9:56 pm 21:56 Mostly Cloudy with Light Snow 4 -15.6 -1 -18.3 80 80 WSW 7 11 30.59 1036 10 16 N/A
10:10 pm 22:10 Partly Cloudy with Scattered Snow Showers 1 -17 -2 -19 85 85 WSW 6 9 30.62 1037 9 14 N/A
10:25 pm 22:25 Mostly Cloudy 1 -17 -2 -19 85 85 W 6 9 30.62 1037 10 16 N/A
10:56 pm 22:56 Cloudy 2 -16.7 -2 -18.9 83 83 WSW 3 6 30.60 1036 10 16 N/A
11:40 pm 23:40 Cloudy 5 -15 1 -17 85 85 WSW 7 11 30.62 1037 10 16 N/A
11:56 pm 23:56 Cloudy 5 -15 1 -17.2 83 83 WSW 7 11 30.59 1036 10 16 N/A

Powered by AerisWeather